Date String (YYYY-MM-DD hh:mm:ss) UTC,Instrument flags,Ambient pressure (hPa),Sample flow (lpm),Bypass flow (lpm),Sample temperature (°C),Ambient temperature (°C),ASC tube jacket temperature (°C),LED temperature (°C),Box temperature (°C),Sample RH (%),Span deviation,Mass concentration (μg/m³),Mass concentration (μg/m³),Mass concentration (μg/m³)
DateTimeUTC,F1_M11,P_M11,Q1_M11,Q2_M11,T1_M11,T2_M11,T3_M11,T4_M11,T5_M11,U1_M11,ZSPAN_M11,X2_M11,X0_M11,X1_M11
2023-02-04 16:00:00,,0824.6,5.03,0.00,21.9,20.4,00.0,30.8,23.5,08.0,0000.0,0000.92,0002.73,0000.46
2023-02-04 16:01:00,,0824.4,5.00,0.00,21.9,20.4,00.0,30.7,23.5,08.2,0000.0,0000.95,0002.83,0000.46
2023-02-04 16:02:00,,0824.5,4.97,0.00,21.8,20.4,00.0,30.7,23.4,07.9,0000.0,0000.99,0003.09,0000.45
2023-02-04 16:03:00,,0824.5,4.98,0.00,21.8,20.4,00.0,30.7,23.4,07.9,0000.0,0001.00,0003.61,0000.45
2023-02-04 16:04:00,,0824.4,4.98,0.00,21.8,20.4,00.0,30.7,23.5,07.9,0000.0,0001.01,0004.02,0000.45
2023-02-04 16:05:00,,0824.5,4.99,0.00,21.8,20.4,00.0,30.7,23.5,07.6,0000.0,0001.00,0004.34,0000.45
2023-02-04 16:06:00,,0824.9,5.04,0.00,21.8,20.7,00.0,30.7,23.6,07.6,0000.0,0000.95,0004.07,0000.44
2023-02-04 16:07:00,,0824.5,5.00,0.00,21.9,22.0,00.0,30.7,23.9,07.7,0000.0,0000.88,0003.79,0000.43
2023-02-04 16:08:00,,0824.7,4.99,0.00,22.1,22.9,00.0,30.7,24.2,07.6,0000.0,0000.89,0003.86,0000.45
2023-02-04 16:09:00,,0824.5,4.97,0.00,22.2,22.5,00.0,30.8,24.2,07.8,0000.0,0000.95,0003.84,0000.47
2023-02-04 16:10:00,,0824.6,5.03,0.00,22.2,22.1,00.0,30.8,24.1,07.8,0000.0,0000.97,0003.66,0000.48
2023-02-04 16:11:00,,0824.6,5.03,0.00,22.2,21.8,00.0,30.8,24.1,07.4,0000.0,0001.00,0003.71,0000.49
2023-02-04 16:12:00,,0824.7,5.02,0.00,22.2,21.6,00.0,30.9,24.0,07.4,0000.0,0001.00,0003.74,0000.49
2023-02-04 16:13:00,,0824.8,4.98,0.00,22.2,21.4,00.0,30.9,24.0,08.2,0000.0,0000.99,0003.57,0000.50
2023-02-04 16:14:00,,0824.8,4.98,0.00,22.2,21.3,00.0,30.9,23.9,08.6,0000.0,0001.02,0003.16,0000.50
2023-02-04 16:15:00,,0824.7,5.01,0.00,22.2,21.2,00.0,30.9,23.9,08.5,0000.0,0001.04,0002.74,0000.50
2023-02-04 16:16:00,,0824.9,5.03,0.00,22.2,21.1,00.0,30.9,23.9,08.3,0000.0,0001.04,0002.35,0000.51
2023-02-04 16:17:00,,0824.9,4.99,0.00,22.2,21.1,00.0,30.9,23.9,07.9,0000.0,0001.04,0002.66,0000.52
2023-02-04 16:18:00,,0825.0,4.97,0.00,22.2,21.0,00.0,31.0,23.9,08.1,0000.0,0001.06,0003.59,0000.52
2023-02-04 16:19:00,,0824.9,4.99,0.00,22.2,21.0,00.0,31.0,23.9,07.4,0000.0,0001.08,0003.64,0000.51
2023-02-04 16:20:00,,0824.9,5.03,0.00,22.2,20.9,00.0,31.0,23.9,07.2,0000.0,0001.07,0003.59,0000.51
2023-02-04 16:21:00,,0825.1,5.02,0.00,22.2,20.9,00.0,31.0,23.8,07.9,0000.0,0001.10,0003.68,0000.51
2023-02-04 16:22:00,,0825.0,4.97,0.00,22.1,20.8,00.0,31.0,23.8,08.4,0000.0,0001.13,0003.82,0000.51
2023-02-04 16:23:00,,0825.2,4.96,0.00,22.1,20.8,00.0,31.0,23.7,07.3,0000.0,0001.16,0003.93,0000.52
2023-02-04 16:24:00,,0825.3,5.03,0.00,22.1,20.8,00.0,31.0,23.8,08.4,0000.0,0001.20,0004.17,0000.52
2023-02-04 16:25:00,,0825.4,5.03,0.00,22.1,20.7,00.0,31.0,23.8,08.2,0000.0,0001.25,0004.27,0000.53
2023-02-04 16:26:00,,0825.4,4.99,0.00,22.1,20.6,00.0,31.0,23.8,08.6,0000.0,0001.32,0004.52,0000.54
2023-02-04 16:27:00,,0825.3,4.94,0.00,22.1,20.7,00.0,31.0,23.8,08.3,0000.0,0001.38,0004.72,0000.54
2023-02-04 16:28:00,,0825.3,4.92,0.00,22.1,20.7,00.0,31.0,23.8,08.4,0000.0,0001.38,0004.72,0000.54
2023-02-04 16:29:00,,0825.2,5.02,0.00,22.1,20.7,00.0,30.9,23.7,07.8,0000.0,0001.40,0004.83,0000.54
2023-02-04 16:30:00,,0825.1,5.03,0.00,22.1,20.8,00.0,30.9,23.8,07.8,0000.0,0001.44,0003.90,0000.54
2023-02-04 16:31:00,,0825.2,4.99,0.00,22.1,20.7,00.0,30.9,23.7,07.4,0000.0,0001.42,0004.42,0000.54
2023-02-04 16:32:00,,0825.2,4.99,0.00,22.1,20.7,00.0,30.9,23.7,07.4,0000.0,0001.33,0004.56,0000.53
2023-02-04 16:33:00,,0825.2,4.98,0.00,22.1,20.7,00.0,30.9,23.7,07.8,0000.0,0001.33,0005.53,0000.53
2023-02-04 16:34:00,,0825.2,5.00,0.00,22.1,20.8,00.0,30.9,23.8,08.5,0000.0,0001.28,0005.46,0000.53
2023-02-04 16:35:00,,0825.3,5.03,0.00,22.1,20.7,00.0,30.9,23.7,08.1,0000.0,0001.24,0005.31,0000.52
2023-02-04 16:36:00,,0825.3,5.00,0.00,22.0,20.7,00.0,30.9,23.6,08.1,0000.0,0001.19,0005.04,0000.52
2023-02-04 16:37:00,,0825.3,4.99,0.00,22.0,20.7,00.0,30.9,23.6,08.2,0000.0,0001.13,0004.94,0000.51
2023-02-04 16:38:00,,0825.4,4.97,0.00,22.0,20.7,00.0,30.9,23.6,07.8,0000.0,0001.05,0005.69,0000.49
2023-02-04 16:39:00,,0825.5,4.99,0.00,22.0,20.6,00.0,30.9,23.6,07.6,0000.0,0000.98,0006.08,0000.49
2023-02-04 16:40:00,,0825.5,5.01,0.00,22.0,20.6,00.0,30.9,23.6,07.5,0000.0,0000.98,0006.48,0000.48
2023-02-04 16:41:00,,0825.5,5.01,0.00,22.0,20.6,00.0,30.9,23.6,08.1,0000.0,0000.91,0006.27,0000.48
2023-02-04 16:42:00,,0825.6,4.98,0.00,22.0,20.6,00.0,30.9,23.5,08.0,0000.0,0000.90,0005.53,0000.49
2023-02-04 16:43:00,,0825.7,4.97,0.00,22.0,20.6,00.0,30.9,23.6,08.1,0000.0,0000.93,0005.26,0000.50
2023-02-04 16:44:00,,0825.7,5.00,0.00,22.0,20.5,00.0,30.9,23.6,08.0,0000.0,0000.94,0004.28,0000.49
2023-02-04 16:45:00,,0825.8,5.02,0.00,22.0,20.6,00.0,30.9,23.6,07.6,0000.0,0000.91,0004.07,0000.48
2023-02-04 16:46:00,,0826.2,5.03,0.00,22.0,20.6,00.0,30.9,23.6,07.9,0000.0,0000.94,0004.09,0000.49
2023-02-04 16:47:00,,0826.0,5.00,0.00,22.0,20.6,00.0,30.9,23.6,07.6,0000.0,0000.95,0004.07,0000.50
2023-02-04 16:48:00,,0825.7,4.98,0.00,22.0,20.7,00.0,30.9,23.7,07.7,0000.0,0000.92,0003.95,0000.50
2023-02-04 16:49:00,,0825.7,4.99,0.00,22.0,20.7,00.0,30.9,23.7,07.8,0000.0,0000.90,0003.57,0000.50
2023-02-04 16:50:00,,0825.5,5.02,0.00,22.0,20.7,00.0,30.9,23.6,07.8,0000.0,0000.90,0003.19,0000.49
2023-02-04 16:51:00,,0825.5,5.02,0.00,22.0,20.7,00.0,30.9,23.7,07.6,0000.0,0000.90,0002.61,0000.50
2023-02-04 16:52:00,,0825.4,5.01,0.00,22.0,20.7,00.0,30.9,23.7,07.3,0000.0,0000.90,0002.52,0000.50
2023-02-04 16:53:00,,0825.4,4.98,0.00,22.0,20.7,00.0,30.9,23.6,07.5,0000.0,0000.91,0002.63,0000.49
2023-02-04 16:54:00,,0825.4,4.98,0.00,22.0,20.6,00.0,30.9,23.6,07.2,0000.0,0000.91,0002.76,0000.48
2023-02-04 16:55:00,,0825.5,4.99,0.00,22.0,20.6,00.0,30.9,23.6,07.5,0000.0,0000.88,0002.86,0000.49
2023-02-04 16:56:00,,0825.3,5.02,0.00,22.0,20.6,00.0,30.9,23.6,08.3,0000.0,0000.89,0002.89,0000.50
2023-02-04 16:57:00,,0825.4,5.03,0.00,22.0,20.6,00.0,30.9,23.6,07.7,0000.0,0000.87,0002.91,0000.50
2023-02-04 16:58:00,,0825.4,5.00,0.00,22.0,20.5,00.0,30.8,23.5,07.6,0000.0,0000.91,0002.99,0000.49
2023-02-04 16:59:00,,0825.3,4.98,0.00,21.9,20.5,00.0,30.8,23.5,07.9,0000.0,0000.93,0003.05,0000.49
